[[{"header":{"parameterUnit":"m.s-1","parameterCategory":1,"la1":30.2991,"la2":30.254,"lo1":-89.0895,"lo2":-89.0444,"dy":0.0017,"dx":0.0017,"nx":28,"ny":28,"refTime":"2026-01-01T03:00:00:Z","depth":0,"parameterNumber":2,"parameterNumberName":"U-component_of_WINDS"},"data":[0,0,0,0,0,0,0,0,0,0,0,0,0,0,0,0,0,0,0,0,0,0,0,0,0,0,0,0,0,0,0,0,0,0,0,0,0,0,0,0,0,0,0,0,0,0,0,0,0,0,0,0,0,0,0,0,0,0,3.4583,3.4584,0,3.4718,3.4719,3.4721,3.4711,3.4709,3.4706,3.4705,3.4848,3.4854,3.4859,0,0,0,0,0,0,0,0,0,0,0,0,0,3.4323,3.4328,3.4583,3.4585,3.4586,3.4718,3.472,3.4721,3.4711,3.4708,3.4706,3.4704,3.4846,3.4853,3.486,0,0,0,0,0,0,0,0,0,0,0,0,0,3.4445,3.433,3.4583,3.4597,3.4599,3.4717,3.472,3.4722,3.4711,3.4708,3.4705,3.4702,3.4844,3.4852,3.4861,3.4975,0,0,3.4887,3.4891,0,0,0,0,0,0,0,0,3.4438,3.4455,3.4593,3.4596,3.4599,3.4694,3.4681,3.4807,3.4712,3.4669,3.4704,3.4701,3.48,3.4812,3.4844,3.4982,3.4988,3.4888,3.4893,3.4897,3.4899,0,0,0,0,0,0,0,3.443,3.4449,3.4636,3.4595,3.4599,3.4599,3.4613,3.4704,3.475,3.4673,3.4672,3.4688,3.4801,3.4836,3.4847,3.499,3.4887,3.4895,3.49,3.4904,3.5232,3.5235,0,0,0,0,0,0,3.4417,3.4442,3.4632,3.464,3.4509,3.4606,3.4621,3.4667,3.4749,3.4758,3.469,3.4687,3.4822,3.4837,3.4852,3.4993,3.4897,3.4905,3.491,3.5228,3.5233,3.5237,0,0,0,0,0,0,3.4412,3.4434,3.4627,3.4541,3.4566,3.4614,3.4665,3.4671,3.4706,3.4762,3.4771,3.4717,3.4821,3.484,3.4945,3.4998,3.4908,3.4916,3.5224,3.523,3.5235,3.5275,0,0,0,0,0,0,3.4404,3.4432,3.4474,3.4542,3.457,3.4715,3.4668,3.4676,3.472,3.4717,3.479,3.4799,3.482,3.4932,3.4953,3.5008,3.4923,3.522,3.5227,3.5233,3.5269,3.5281,3.5291,0,0,0,0,0,3.4395,3.4481,3.4476,3.4499,3.4623,3.4718,3.4734,3.4755,3.4724,3.4768,3.4805,3.4797,3.4989,3.4943,3.4967,3.5025,3.5216,3.5225,3.5232,3.5264,3.5278,3.5291,0,0,0,0,0,0,3.4419,3.449,3.4486,3.4595,3.4651,3.4716,3.4772,3.4769,3.4835,3.483,3.4854,3.4871,3.4977,3.5012,3.4959,3.5142,3.5099,3.5112,3.5115,3.5129,3.514,3.5129,3.493,0,0,0,0,0,3.4436,3.4505,3.4565,3.4656,3.4684,3.4723,3.4765,3.4776,3.4835,3.4859,3.4903,3.4963,3.5037,3.5085,3.5156,3.5274,3.5291,3.5326,3.5337,3.5346,3.5357,3.5425,3.5442,3.5263,3.5263,3.5263,0,0,3.4474,3.4522,3.4564,3.4662,3.4706,3.4779,3.4743,3.4821,3.4877,3.4871,3.4973,3.5008,3.5076,3.5189,3.5241,3.5221,3.5411,3.5356,3.5363,3.537,3.5435,3.5452,3.5467,3.5268,3.5267,3.5266,0,0,3.4581,3.4622,3.4704,3.4749,3.4816,3.4843,3.4862,3.4929,3.4952,3.5054,3.5052,3.512,3.5246,3.5295,3.5337,3.5465,3.5461,3.5488,3.5546,3.5612,3.5626,3.5639,3.5686,3.5703,3.5499,3.5499,3.5499,0,3.4619,3.4728,3.4747,3.4827,3.4871,3.4869,3.4954,3.4997,3.5085,3.5117,3.5093,3.5253,3.5299,3.5424,3.5456,3.5489,3.5514,3.548,3.5622,3.5635,3.5647,3.5693,3.5711,3.5502,3.5502,3.5502,3.5501,0,3.4773,3.4849,3.4907,3.4991,3.5042,3.5124,3.5158,3.5208,3.5216,3.5245,3.5351,3.5406,3.5489,3.552,3.5529,3.5648,3.5634,3.5616,3.5574,3.5667,3.571,3.5728,3.5506,3.5505,3.5504,3.5504,0,0,3.4896,3.4991,3.5013,3.5052,3.5127,3.5187,3.5271,3.5351,3.5394,3.5456,3.5528,3.5636,3.5621,3.5668,3.5682,3.574,3.5841,3.5716,3.5718,3.5738,3.5979,3.5992,3.6012,3.5839,3.5842,3.5845,3.5974,0,3.5011,3.5156,3.5178,3.5307,3.5379,3.538,3.5453,3.5508,3.5539,3.5606,3.5641,3.5718,3.5691,3.572,3.5777,3.5817,3.589,3.5808,3.5909,3.5912,3.5891,3.6034,3.6048,3.6166,3.5991,3.5993,3.5995,0,3.5164,3.5229,3.5365,3.5433,3.5464,3.5529,3.5606,3.5669,3.5734,3.5752,3.5806,3.5815,3.5904,3.5858,3.5984,3.5927,3.597,3.5996,3.6002,3.6012,3.5959,3.6049,3.6204,3.6222,3.6022,3.602,3.6018,0,3.5242,3.5363,3.5461,3.5495,3.5576,3.5622,3.5659,3.572,3.5768,3.5836,3.5868,3.5946,3.5989,3.6051,3.6081,3.6045,3.6205,3.6161,3.6225,3.6225,3.6259,3.6256,3.6423,3.6286,3.6285,3.6285,3.6285,0,3.5368,3.5451,3.5497,3.5558,3.5653,3.5678,3.5772,3.5808,3.5863,3.5932,3.5938,3.6004,3.6039,3.6111,3.6136,3.6237,3.6256,3.6275,3.6281,3.6275,3.6273,3.6303,3.6296,3.629,3.6289,3.6288,3.6287,0,3.547,3.5504,3.5611,3.568,3.5699,3.5767,3.5827,3.5887,3.5918,3.6006,3.6028,3.6078,3.6162,3.6199,3.6303,3.632,3.6436,3.6436,3.6414,3.6416,3.6478,3.6472,3.6671,3.6699,3.6542,3.6544,3.6545,0,3.5548,3.5612,3.5689,3.5735,3.5772,3.5847,3.5896,3.5925,3.5976,3.6056,3.6107,3.6192,3.6261,3.6397,3.6444,3.6525,3.6526,3.6591,3.6539,3.6531,3.6529,3.6525,3.6532,3.66,3.6602,3.6603,3.6604,0,3.5684,3.5698,3.5767,3.5844,3.5902,3.5964,3.6024,3.6063,3.6101,3.6159,3.6245,3.6299,3.6406,3.6491,3.6575,3.6616,3.6618,3.662,3.664,3.6634,3.6619,3.6629,3.6441,3.6615,3.6614,3.6613,3.6613,3.6612,3.5777,3.5835,3.5898,3.5977,3.6025,3.6082,3.6143,3.6182,3.6254,3.6342,3.6356,3.6448,3.6515,3.6628,3.6672,3.6746,3.6731,3.6758,3.6765,3.6772,3.6776,3.6607,3.6762,3.6762,3.6761,3.6761,3.6761,0,3.5914,3.5955,3.6027,3.6111,3.6174,3.6169,3.6237,3.629,3.6371,3.6432,3.65,3.6601,3.6684,3.6738,3.6823,3.6872,3.6875,3.6894,3.689,3.69,3.6785,3.676,3.689,3.689,3.689,3.689,3.6889,3.6889,3.5992,3.6091,3.6113,3.6238,3.6279,3.6369,3.6408,3.6462,3.6511,3.6623,3.6691,3.6726,3.6785,3.6875,3.6952,3.6966,3.6997,3.7017,3.703,3.6921,3.6908,3.6895,3.6872,3.7023,3.7023,3.7139,3.714,3.7141]},{"header":{"parameterUnit":"m.s-1","parameterCategory":1,"la1":30.2991,"la2":30.254,"lo1":-89.0895,"lo2":-89.0444,"dy":0.0017,"dx":0.0017,"nx":28,"ny":28,"refTime":"2026-01-01T03:00:00:Z","depth":0,"parameterNumber":3,"parameterNumberName":"V-component_of_WINDS"},"data":[0,0,0,0,0,0,0,0,0,0,0,0,0,0,0,0,0,0,0,0,0,0,0,0,0,0,0,0,0,0,0,0,0,0,0,0,0,0,0,0,0,0,0,0,0,0,0,0,0,0,0,0,0,0,0,0,0,0,2.2578,2.2579,0,2.2634,2.2635,2.2635,2.2647,2.2647,2.2646,2.2646,2.2699,2.2701,2.2703,0,0,0,0,0,0,0,0,0,0,0,0,0,2.2477,2.2478,2.2578,2.2579,2.2579,2.2634,2.2635,2.2635,2.2647,2.2647,2.2646,2.2646,2.2699,2.2701,2.2703,0,0,0,0,0,0,0,0,0,0,0,0,0,2.2525,2.2479,2.2578,2.2592,2.2594,2.2634,2.2635,2.2636,2.2647,2.2647,2.2646,2.2645,2.2698,2.2701,2.2703,2.2732,0,0,2.2711,2.2713,0,0,0,0,0,0,0,0,2.2523,2.2529,2.2589,2.2591,2.2593,2.2633,2.2618,2.2668,2.2647,2.2627,2.2646,2.2645,2.2677,2.2682,2.2693,2.2734,2.2737,2.2712,2.2713,2.2714,2.2715,0,0,0,0,0,0,0,2.2519,2.2527,2.26,2.259,2.2592,2.2594,2.26,2.2628,2.2655,2.2628,2.263,2.2636,2.2678,2.2691,2.2695,2.2738,2.2712,2.2714,2.2716,2.2717,2.2803,2.2804,0,0,0,0,0,0,2.2514,2.2524,2.2598,2.2602,2.2556,2.2596,2.2603,2.2621,2.2654,2.2659,2.2637,2.2637,2.2687,2.2692,2.2697,2.2732,2.2714,2.2717,2.2719,2.2802,2.2803,2.2804,0,0,0,0,0,0,2.2512,2.252,2.2596,2.2563,2.2573,2.2599,2.2618,2.2622,2.2635,2.2661,2.2665,2.2645,2.2686,2.2693,2.2723,2.2734,2.2718,2.2721,2.2802,2.2803,2.2804,2.2802,0,0,0,0,0,0,2.2509,2.252,2.2532,2.2563,2.2575,2.2623,2.2619,2.2624,2.264,2.264,2.2669,2.2674,2.2686,2.2719,2.2726,2.2737,2.2723,2.2801,2.2802,2.2803,2.2801,2.2803,2.2805,0,0,0,0,0,2.2505,2.2529,2.2533,2.2542,2.2591,2.2623,2.263,2.2645,2.2641,2.2652,2.2669,2.2673,2.2731,2.2722,2.273,2.2742,2.28,2.2802,2.2803,2.2801,2.2803,2.2804,0,0,0,0,0,0,2.2497,2.2533,2.2538,2.2573,2.2595,2.2625,2.2641,2.2647,2.267,2.2669,2.2685,2.2692,2.2721,2.2734,2.2723,2.2771,2.2765,2.2768,2.2761,2.2763,2.2765,2.276,2.2725,0,0,0,0,0,2.25,2.2525,2.2554,2.2582,2.2593,2.2615,2.263,2.264,2.2663,2.2672,2.2691,2.2712,2.2735,2.275,2.2772,2.2803,2.2809,2.2815,2.2817,2.2818,2.282,2.2836,2.2839,2.2809,2.2809,2.2809,0,0,2.2505,2.2528,2.2542,2.2581,2.2599,2.2623,2.2623,2.2648,2.2666,2.2675,2.2705,2.2719,2.2744,2.2774,2.2788,2.2786,2.283,2.282,2.2821,2.2823,2.2838,2.2841,2.2844,2.281,2.281,2.281,0,0,2.2526,2.2547,2.2572,2.259,2.2618,2.2632,2.2638,2.2668,2.2678,2.2708,2.2715,2.2735,2.2775,2.2792,2.2806,2.2832,2.2836,2.2839,2.2847,2.2862,2.2864,2.2867,2.2875,2.2878,2.2841,2.2841,2.2841,0,2.2529,2.2566,2.2583,2.2609,2.2625,2.2635,2.266,2.2676,2.271,2.272,2.2717,2.2767,2.2784,2.2818,2.2824,2.2835,2.2841,2.2836,2.2863,2.2865,2.2868,2.2876,2.2879,2.2841,2.2841,2.2841,2.2841,0,2.2567,2.2593,2.261,2.2643,2.2661,2.2685,2.2704,2.272,2.2728,2.2742,2.2771,2.2792,2.2819,2.2828,2.2835,2.2862,2.286,2.286,2.2855,2.287,2.2878,2.2882,2.2842,2.2841,2.2841,2.2841,0,0,2.2586,2.2628,2.2633,2.2648,2.2679,2.2699,2.2723,2.275,2.2763,2.2785,2.2805,2.2838,2.2838,2.2853,2.2862,2.2876,2.2894,2.2874,2.2875,2.2876,2.2923,2.2923,2.2926,2.2897,2.2897,2.2898,2.2921,0,2.261,2.2656,2.2671,2.2708,2.2731,2.2741,2.2761,2.2782,2.2795,2.2815,2.2829,2.2852,2.2851,2.286,2.2874,2.2889,2.2903,2.2887,2.2914,2.2914,2.2907,2.2931,2.293,2.2951,2.2924,2.2925,2.2925,0,2.2646,2.2669,2.2709,2.2736,2.2746,2.2765,2.279,2.281,2.2833,2.2841,2.2858,2.2866,2.289,2.2883,2.2915,2.2904,2.2916,2.2924,2.2925,2.2928,2.2921,2.2933,2.2958,2.2961,2.293,2.293,2.293,0,2.2654,2.2696,2.2725,2.2737,2.277,2.2782,2.2796,2.2818,2.2833,2.2855,2.2864,2.2888,2.2901,2.2918,2.2931,2.2926,2.2962,2.2957,2.2968,2.2968,2.2975,2.2974,2.3002,2.2983,2.2983,2.2983,2.2983,0,2.268,2.2703,2.2729,2.2746,2.2772,2.2788,2.2813,2.2827,2.2847,2.2866,2.2875,2.2893,2.291,2.2929,2.2939,2.2964,2.2969,2.2976,2.2978,2.2975,2.2974,2.2982,2.2981,2.2984,2.2984,2.2984,2.2984,0,2.2694,2.2712,2.2744,2.2772,2.278,2.2797,2.2821,2.2837,2.2851,2.2875,2.2881,2.2902,2.2925,2.294,2.2969,2.2976,2.3002,2.3004,2.2995,2.2996,2.3006,2.3005,2.304,2.3044,2.3023,2.3023,2.3023,0,2.2709,2.2727,2.2758,2.2772,2.2786,2.2809,2.2824,2.284,2.2855,2.2882,2.2895,2.2919,2.2939,2.2974,2.2991,2.3013,2.3015,2.3026,2.3018,2.3014,2.3014,2.3013,2.3014,2.3027,2.3027,2.3027,2.3027,0,2.2733,2.2741,2.2764,2.2789,2.2807,2.2828,2.2848,2.2859,2.2878,2.2894,2.2919,2.2934,2.2964,2.2987,2.301,2.3023,2.3028,2.3029,2.3033,2.303,2.3023,2.3026,2.2997,2.3028,2.3028,2.3028,2.3028,2.3028,2.2748,2.2764,2.2788,2.2812,2.2829,2.2848,2.2865,2.288,2.2901,2.2928,2.2935,2.296,2.298,2.3012,2.3025,2.3044,2.3042,2.3048,2.3049,2.305,2.305,2.302,2.3048,2.3048,2.3048,2.3048,2.3048,0,2.2772,2.2788,2.281,2.2839,2.2857,2.2862,2.2884,2.2899,2.2921,2.294,2.296,2.2987,2.3009,2.3027,2.3049,2.306,2.3063,2.3065,2.3064,2.3067,2.305,2.3044,2.3063,2.3063,2.3063,2.3063,2.3063,2.3063,2.2786,2.2814,2.2825,2.286,2.2875,2.2901,2.2913,2.2929,2.2945,2.2975,2.2994,2.3006,2.3024,2.3048,2.3067,2.3072,2.3079,2.3081,2.3086,2.307,2.3068,2.3067,2.3061,2.3083,2.3083,2.3101,2.3101,2.3101]}]]